LU1MQF-13 Weather Reports


time (UTC)temp
C
wind
direction
speed
KPH
gust
KPH
rain 1hr
cm
rain 24hr
cm
rain mn
cm
humidity
%
barometer
mb
20260507052712 17 0 0.0 0.0 0.00 0.00 0.00 32 934.4
20260507051212 17 0 0.0 0.0 0.00 0.00 0.00 33 934.3
20260507045712 17 0 0.0 0.0 0.00 0.00 0.00 33 933.9
20260507044212 17 0 0.0 0.0 0.00 0.00 0.00 34 933.6
20260507042712 17 0 0.0 0.0 0.00 0.00 0.00 35 933.1
20260507041212 17 0 0.0 0.0 0.00 0.00 0.00 37 932.9
20260507035711 18 0 0.0 0.0 0.00 0.00 0.00 40 932.7
20260507034211 17 0 0.0 0.0 0.00 0.00 0.00 34 932.0
20260507032712 17 0 0.0 0.0 0.00 0.00 0.00 34 932.1
20260507031211 17 0 0.0 0.0 0.00 0.00 0.00 35 932.1
20260507025712 17 0 0.0 0.0 0.00 0.00 0.00 36 932.0
20260507024212 17 0 0.0 0.0 0.00 0.00 0.00 37 931.9
20260507022711 17 0 0.0 0.0 0.00 0.00 0.00 39 931.9
20260507021212 17 0 0.0 0.0 0.00 0.00 0.00 41 932.1
20260507015712 17 0 0.0 0.0 0.00 0.00 0.00 46 932.4
20260507014211 17 0 0.0 0.0 0.00 0.00 0.00 40 931.9
20260507012712 17 0 0.0 0.0 0.00 0.00 0.00 41 931.6
20260507011211 17 0 0.0 0.0 0.00 0.00 0.00 42 931.3
20260507005711 18 0 0.0 0.0 0.00 0.00 0.00 43 931.2
20260507004212 18 0 0.0 0.0 0.00 0.00 0.00 44 930.9
20260507002711 18 0 0.0 0.0 0.00 0.00 0.00 44 931.0
20260507001212 20 0 0.0 0.0 0.00 0.00 0.00 50 931.1
20260506235712 18 0 0.0 0.0 0.00 0.00 0.00 50 931.1
20260506234211 18 0 0.0 0.0 0.00 0.00 0.00 50 931.1
20260506232712 18 0 0.0 0.0 0.00 0.00 0.00 49 931.4
20260506231211 18 0 0.0 0.0 0.00 0.00 0.00 39 931.2
20260506225711 18 0 0.0 0.0 0.00 0.00 0.00 39 931.7
20260506224212 18 0 0.0 0.0 0.00 0.00 0.00 39 931.2
20260506222711 18 0 0.0 0.0 0.00 0.00 0.00 38 931.0
20260506221211 18 0 0.0 0.0 0.00 0.00 0.00 39 930.9
20260506215711 18 0 0.0 0.0 0.00 0.00 0.00 39 930.7
20260506214210 20 0 0.0 0.0 0.00 0.00 0.00 39 930.7
20260506212711 20 0 0.0 0.0 0.00 0.00 0.00 39 930.3
20260506211211 21 0 0.0 0.0 0.00 0.00 0.00 38 930.6
20260506205711 21 0 0.0 0.0 0.00 0.00 0.00 37 930.7
20260506204211 21 0 0.0 0.0 0.00 0.00 0.00 37 930.4
20260506202711 21 0 0.0 0.0 0.00 0.00 0.00 35 929.6
20260506201211 22 0 0.0 0.0 0.00 0.00 0.00 33 928.8
20260506195711 22 0 0.0 0.0 0.00 0.00 0.00 33 929.0
20260506194211 22 0 0.0 0.0 0.00 0.00 0.00 30 929.7
20260506192711 22 0 0.0 0.0 0.00 0.00 0.00 29 929.4
20260506191211 22 0 0.0 0.0 0.00 0.00 0.00 29 929.3
20260506185711 23 0 0.0 0.0 0.00 0.00 0.00 28 929.4
20260506184210 23 0 0.0 0.0 0.00 0.00 0.00 28 929.0
20260506182711 23 0 0.0 0.0 0.00 0.00 0.00 30 928.5
20260506181211 22 0 0.0 0.0 0.00 0.00 0.00 32 927.7
20260506175711 23 0 0.0 0.0 0.00 0.00 0.00 42 928.3
20260506174211 23 0 0.0 0.0 0.00 0.00 0.00 43 928.4
20260506172711 23 0 0.0 0.0 0.00 0.00 0.00 43 928.4
20260506171211 23 0 0.0 0.0 0.00 0.00 0.00 43 928.2
20260506165710 23 0 0.0 0.0 0.00 0.00 0.00 42 928.0
20260506164211 23 0 0.0 0.0 0.00 0.00 0.00 43 927.9
20260506162710 23 0 0.0 0.0 0.00 0.00 0.00 44 928.2
20260506161210 22 0 0.0 0.0 0.00 0.00 0.00 45 928.3
20260506155710 22 0 0.0 0.0 0.00 0.00 0.00 47 928.3
20260506154211 22 0 0.0 0.0 0.00 0.00 0.00 48 928.6
20260506152711 21 0 0.0 0.0 0.00 0.00 0.00 48 929.1
20260506151210 21 0 0.0 0.0 0.00 0.00 0.00 48 929.8
20260506145710 21 0 0.0 0.0 0.00 0.00 0.00 49 929.9
20260506144211 21 0 0.0 0.0 0.00 0.00 0.00 48 930.2
20260506142710 20 0 0.0 0.0 0.00 0.00 0.00 50 930.3
20260506141210 20 0 0.0 0.0 0.00 0.00 0.00 52 930.5
20260506135710 18 0 0.0 0.0 0.00 0.00 0.00 52 930.7
20260506134210 18 0 0.0 0.0 0.00 0.00 0.00 52 930.7
20260506132711 18 0 0.0 0.0 0.00 0.00 0.00 52 930.6
20260506131210 18 0 0.0 0.0 0.00 0.00 0.00 52 930.9
20260506125711 18 0 0.0 0.0 0.00 0.00 0.00 53 930.7
20260506124211 17 0 0.0 0.0 0.00 0.00 0.00 54 931.1
20260506122710 17 0 0.0 0.0 0.00 0.00 0.00 54 931.1
20260506121211 17 0 0.0 0.0 0.00 0.00 0.00 54 931.2
20260506115710 16 0 0.0 0.0 0.00 0.00 0.00 54 931.3
20260506114210 16 0 0.0 0.0 0.00 0.00 0.00 54 931.3
20260506112710 15 0 0.0 0.0 0.00 0.00 0.00 54 931.0
20260506111211 16 0 0.0 0.0 0.00 0.00 0.00 53 931.1
20260506105710 16 0 0.0 0.0 0.00 0.00 0.00 53 931.1
20260506104210 16 0 0.0 0.0 0.00 0.00 0.00 53 930.9
20260506102710 16 0 0.0 0.0 0.00 0.00 0.00 53 931.1
20260506101210 16 0 0.0 0.0 0.00 0.00 0.00 53 931.2
20260506095710 16 0 0.0 0.0 0.00 0.00 0.00 53 931.3
20260506094210 16 0 0.0 0.0 0.00 0.00 0.00 54 931.1
20260506092710 17 0 0.0 0.0 0.00 0.00 0.00 55 931.2
20260506091210 16 0 0.0 0.0 0.00 0.00 0.00 52 931.2
20260506085710 16 0 0.0 0.0 0.00 0.00 0.00 52 931.2
20260506084210 16 0 0.0 0.0 0.00 0.00 0.00 52 931.4
20260506082709 16 0 0.0 0.0 0.00 0.00 0.00 52 931.7
20260506081210 16 0 0.0 0.0 0.00 0.00 0.00 52 931.7
20260506072710 16 0 0.0 0.0 0.00 0.00 0.00 52 932.6
20260506071210 16 0 0.0 0.0 0.00 0.00 0.00 52 932.8
20260506061209 16 0 0.0 0.0 0.00 0.00 0.00 53 933.0